FW3706 Weather Reports


Display with metric or nautical units.
time (UTC)temp
F
wind
direction
speed
MPH
gust
MPH
rain 1hr
in
rain 24hr
in
rain mn
in
humidity
%
barometer
mb
20260504050506 76 9 0.0 5.0 0.00 0.00 0.00 27 1013.0
20260504050005 76 9 1.0 7.0 0.00 0.00 0.00 27 1013.0
20260504045504 76 9 1.0 8.0 0.00 0.00 0.00 27 1013.1
20260504045004 76 10 4.0 8.0 0.00 0.00 0.00 27 1012.9
20260504044506 76 9 1.0 9.0 0.00 0.00 0.00 27 1013.0
20260504044004 76 360 2.0 9.0 0.00 0.00 0.00 27 1013.1
20260504043505 76 360 1.0 5.0 0.00 0.00 0.00 26 1013.1
20260504043004 76 360 1.0 7.0 0.00 0.00 0.00 26 1013.0
20260504042505 77 360 0.0 7.0 0.00 0.00 0.00 25 1013.0
20260504042005 77 8 2.0 7.0 0.00 0.00 0.00 25 1012.9
20260504041504 77 9 0.0 5.0 0.00 0.00 0.00 25 1013.0
20260504041007 77 9 0.0 6.0 0.00 0.00 0.00 24 1013.0
20260504040503 77 9 2.0 7.0 0.00 0.00 0.00 24 1012.9
20260504040006 77 9 2.0 8.0 0.00 0.00 0.00 24 1012.6
20260504035508 78 9 3.0 10.0 0.00 0.00 0.00 24 1012.6
20260504035005 78 8 4.0 12.0 0.00 0.00 0.00 23 1012.3
20260504034504 78 360 3.0 13.0 0.00 0.00 0.00 23 1012.3
20260504034015 78 360 5.0 13.0 0.00 0.00 0.00 22 1012.2
20260504033503 78 10 3.0 12.0 0.00 0.00 0.00 22 1012.0
20260504033003 79 8 7.0 15.0 0.00 0.00 0.00 21 1012.0
20260504032504 79 8 7.0 15.0 0.00 0.00 0.00 21 1011.9
20260504032004 79 11 5.0 12.0 0.00 0.00 0.00 20 1011.9
20260504031503 79 360 6.0 12.0 0.00 0.00 0.00 19 1011.8
20260504031007 79 360 7.0 12.0 0.00 0.00 0.00 19 1011.7
20260504030506 80 360 5.0 12.0 0.00 0.00 0.00 18 1011.4
20260504030004 80 360 1.0 13.0 0.00 0.00 0.00 18 1011.2
20260504025508 80 360 3.0 13.0 0.00 0.00 0.00 17 1011.0
20260504025007 81 11 4.0 10.0 0.00 0.00 0.00 17 1010.9
20260504024504 81 11 4.0 11.0 0.00 0.00 0.00 17 1010.7
20260504024005 81 11 4.0 13.0 0.00 0.00 0.00 17 1010.7
20260504023503 81 360 4.0 13.0 0.00 0.00 0.00 16 1010.4
20260504023004 81 360 6.0 13.0 0.00 0.00 0.00 16 1010.3
20260504022504 82 360 6.0 12.0 0.00 0.00 0.00 16 1010.2
20260504022003 82 11 3.0 9.0 0.00 0.00 0.00 15 1010.2
20260504021504 82 360 2.0 10.0 0.00 0.00 0.00 15 1010.2
20260504021009 82 11 3.0 10.0 0.00 0.00 0.00 15 1010.2
20260504020502 83 360 4.0 11.0 0.00 0.00 0.00 15 1010.2
20260504020003 83 360 3.0 12.0 0.00 0.00 0.00 14 1010.1
20260504015508 83 360 5.0 16.0 0.00 0.00 0.00 14 1010.0
20260504015003 83 360 4.0 16.0 0.00 0.00 0.00 13 1010.0
20260504014505 84 360 6.0 15.0 0.00 0.00 0.00 13 1009.9
20260504014006 84 360 6.0 18.0 0.00 0.00 0.00 13 1010.0
20260504013502 84 360 8.0 18.0 0.00 0.00 0.00 13 1010.0
20260504013024 85 360 6.0 15.0 0.00 0.00 0.00 13 1009.9
20260504012510 85 360 7.0 17.0 0.00 0.00 0.00 12 1009.7
20260504012003 86 7 8.0 17.0 0.00 0.00 0.00 12 1009.5
20260504011522 87 13 7.0 14.0 0.00 0.00 0.00 12 1009.7
20260504011007 88 16 4.0 14.0 0.00 0.00 0.00 11 1009.8
20260504010505 88 152 5.0 13.0 0.00 0.00 0.00 11 1009.9
20260504010022 88 137 6.0 12.0 0.00 0.00 0.00 11 1009.8
20260504005508 88 8 7.0 15.0 0.00 0.00 0.00 11 1010.0
20260504005003 87 6 8.0 16.0 0.00 0.00 0.00 11 1010.1
20260504004524 88 7 7.0 17.0 0.00 0.00 0.00 11 1010.0
20260504004007 88 7 9.0 17.0 0.00 0.00 0.00 11 1010.1
20260504003503 88 33 9.0 16.0 0.00 0.00 0.00 11 1010.0
20260504003024 89 38 8.0 15.0 0.00 0.00 0.00 11 1009.9
20260504002506 89 243 8.0 14.0 0.00 0.00 0.00 11 1009.9
20260504002003 89 202 6.0 15.0 0.00 0.00 0.00 11 1009.9
20260504001524 89 203 8.0 19.0 0.00 0.00 0.00 10 1009.8
20260504001006 90 219 10.0 19.0 0.00 0.00 0.00 10 1009.8
20260504000503 90 233 6.0 17.0 0.00 0.00 0.00 10 1009.7
20260504000037 90 237 9.0 17.0 0.00 0.00 0.00 10 1009.8
20260503235509 91 214 7.0 20.0 0.00 0.00 0.00 10 1009.8
20260503235003 90 181 8.0 20.0 0.00 0.00 0.00 10 1009.8
20260503234522 91 249 8.0 18.0 0.00 0.00 0.00 10 1009.6
20260503234006 90 221 9.0 19.0 0.00 0.00 0.00 11 1009.5
20260503233504 91 216 9.0 19.0 0.00 0.00 0.00 10 1009.4
20260503233025 91 177 8.0 19.0 0.00 0.00 0.00 10 1009.5
20260503232510 91 207 11.0 19.0 0.00 0.00 0.00 11 1009.5
20260503232003 91 229 9.0 18.0 0.00 0.00 0.00 11 1009.6
20260503231523 91 220 6.0 17.0 0.00 0.00 0.00 11 1009.6
20260503231006 91 187 12.0 17.0 0.00 0.00 0.00 11 1009.5
20260503230502 92 202 6.0 15.0 0.00 0.00 0.00 11 1009.6
20260503230024 92 180 6.0 15.0 0.00 0.00 0.00 11 1009.5
20260503225511 93 221 6.0 14.0 0.00 0.00 0.00 11 1009.6
20260503225005 92 195 7.0 14.0 0.00 0.00 0.00 12 1009.7
20260503224523 92 275 4.0 14.0 0.00 0.00 0.00 13 1009.8
20260503224009 92 205 8.0 14.0 0.00 0.00 0.00 12 1009.9
20260503223503 92 223 4.0 17.0 0.00 0.00 0.00 13 1009.9
20260503223023 92 219 8.0 18.0 0.00 0.00 0.00 13 1009.9
20260503222506 92 193 6.0 18.0 0.00 0.00 0.00 13 1009.9
20260503222004 91 171 5.0 15.0 0.00 0.00 0.00 14 1009.9
20260503221524 92 186 4.0 15.0 0.00 0.00 0.00 13 1009.9
20260503221007 93 160 3.0 13.0 0.00 0.00 0.00 13 1009.9
20260503220504 94 176 4.0 10.0 0.00 0.00 0.00 13 1009.8
20260503220026 93 141 3.0 10.0 0.00 0.00 0.00 14 1009.8
20260503215507 92 127 3.0 10.0 0.00 0.00 0.00 14 1009.9
20260503215003 92 219 5.0 10.0 0.00 0.00 0.00 14 1009.9
20260503214531 91 127 3.0 10.0 0.00 0.00 0.00 17 1010.1
20260503214006 91 72 2.0 10.0 0.00 0.00 0.00 20 1010.2
20260503213512 91 131 4.0 10.0 0.00 0.00 0.00 21 1010.4
20260503213028 90 120 1.0 8.0 0.00 0.00 0.00 22 1010.6
20260503212508 88 80 5.0 8.0 0.00 0.00 0.00 23 1010.8
20260503212005 89 91 2.0 8.0 0.00 0.00 0.00 22 1010.9
20260503211523 88 138 1.0 8.0 0.00 0.00 0.00 22 1010.9
20260503211007 88 127 0.0 4.0 0.00 0.00 0.00 23 1011.1
20260503210504 87 127 1.0 8.0 0.00 0.00 0.00 23 1011.3
20260503210039 87 107 3.0 8.0 0.00 0.00 0.00 23 1011.4
20260503205511 88 99 3.0 8.0 0.00 0.00 0.00 23 1011.4
20260503205004 88 122 2.0 8.0 0.00 0.00 0.00 22 1011.4
20260503204524 88 127 3.0 8.0 0.00 0.00 0.00 23 1011.4
20260503204008 88 103 2.0 8.0 0.00 0.00 0.00 24 1011.5
20260503203506 87 21 2.0 9.0 0.00 0.00 0.00 24 1011.5
20260503203028 86 18 4.0 9.0 0.00 0.00 0.00 24 1011.6
20260503202508 87 20 4.0 10.0 0.00 0.00 0.00 24 1011.8
20260503202004 86 11 4.0 10.0 0.00 0.00 0.00 24 1011.8
20260503201532 86 18 5.0 10.0 0.00 0.00 0.00 24 1011.7
20260503201007 87 18 2.0 9.0 0.00 0.00 0.00 24 1011.8
20260503200503 87 25 5.0 10.0 0.00 0.00 0.00 24 1011.9
20260503200004 86 14 5.0 10.0 0.00 0.00 0.00 25 1011.9
20260503195508 87 11 3.0 9.0 0.00 0.00 0.00 25 1012.0
20260503195005 87 18 5.0 9.0 0.00 0.00 0.00 24 1012.2
20260503194524 86 13 4.0 8.0 0.00 0.00 0.00 25 1012.2
20260503194006 86 15 3.0 10.0 0.00 0.00 0.00 26 1012.2
20260503193505 85 13 5.0 10.0 0.00 0.00 0.00 26 1012.3
20260503193022 85 360 4.0 10.0 0.00 0.00 0.00 26 1012.4
20260503192504 85 11 5.0 10.0 0.00 0.00 0.00 27 1012.5
20260503192003 85 11 5.0 11.0 0.00 0.00 0.00 27 1012.5
20260503191524 84 11 3.0 11.0 0.00 0.00 0.00 28 1012.5
20260503191009 85 360 4.0 11.0 0.00 0.00 0.00 28 1012.5
20260503190506 84 13 4.0 11.0 0.00 0.00 0.00 28 1012.5
20260503190030 84 8 3.0 11.0 0.00 0.00 0.00 29 1012.6
20260503185506 83 5 5.0 11.0 0.00 0.00 0.00 29 1012.7
20260503185004 83 23 5.0 11.0 0.00 0.00 0.00 30 1012.6
20260503184527 83 6 5.0 11.0 0.00 0.00 0.00 30 1012.8
20260503184005 83 8 4.0 11.0 0.00 0.00 0.00 29 1013.1
20260503183508 82 8 5.0 12.0 0.00 0.00 0.00 30 1013.2
20260503183025 82 4 7.0 15.0 0.00 0.00 0.00 30 1013.2
20260503182505 82 5 6.0 15.0 0.00 0.00 0.00 30 1013.4
20260503182005 82 6 6.0 13.0 0.00 0.00 0.00 30 1013.4
20260503181524 81 360 6.0 14.0 0.00 0.00 0.00 30 1013.5
20260503181006 82 360 7.0 14.0 0.00 0.00 0.00 30 1013.6
20260503180504 82 8 6.0 11.0 0.00 0.00 0.00 30 1013.8
20260503180024 82 360 3.0 14.0 0.00 0.00 0.00 30 1013.9
20260503175508 82 6 5.0 14.0 0.00 0.00 0.00 30 1013.8
20260503175003 82 10 5.0 11.0 0.00 0.00 0.00 30 1013.8
20260503174522 82 5 5.0 10.0 0.00 0.00 0.00 30 1013.9
20260503174004 82 6 3.0 10.0 0.00 0.00 0.00 30 1014.0
20260503173504 81 15 5.0 10.0 0.00 0.00 0.00 30 1014.1
20260503173029 82 16 3.0 10.0 0.00 0.00 0.00 30 1014.1
20260503172504 81 6 2.0 10.0 0.00 0.00 0.00 31 1014.2
20260503172008 81 5 5.0 10.0 0.00 0.00 0.00 31 1014.2
20260503171522 81 5 4.0 14.0 0.00 0.00 0.00 31 1014.3
20260503171008 81 8 5.0 14.0 0.00 0.00 0.00 31 1014.2
20260503170504 81 5 4.0 14.0 0.00 0.00 0.00 31 1014.2
20260503151006 76 8 1.0 5.0 0.00 0.00 0.00 37 1014.3
20260503150505 75 7 2.0 6.0 0.00 0.00 0.00 37 1014.4
20260503131007 71 5 5.0 9.0 0.00 0.00 0.00 40 1013.4
20260503130510 71 4 3.0 7.0 0.00 0.00 0.00 40 1013.4
20260503110504 74 4 3.0 8.0 0.00 0.00 0.00 36 1013.1
20260503090503 75 6 3.0 8.0 0.00 0.00 0.00 34 1013.3
20260503081542 76 6 3.0 6.0 0.00 0.00 0.00 32 1013.4
20260503081008 76 6 2.0 7.0 0.00 0.00 0.00 32 1013.4
20260503080502 76 6 2.0 7.0 0.00 0.00 0.00 32 1013.5
20260503072506 77 6 3.0 8.0 0.00 0.00 0.00 30 1013.4
20260503072003 77 5 4.0 8.0 0.00 0.00 0.00 30 1013.5
20260503071535 77 5 3.0 8.0 0.00 0.00 0.00 30 1013.5
20260503071009 77 6 3.0 7.0 0.00 0.00 0.00 30 1013.7
20260503070504 78 6 1.0 7.0 0.00 0.00 0.00 30 1013.7
20260503055003 80 6 4.0 13.0 0.00 0.00 0.00 28 1012.6
20260503054533 80 8 5.0 12.0 0.00 0.00 0.00 27 1012.4
20260503054008 80 6 7.0 13.0 0.00 0.00 0.00 27 1012.5
20260503053503 80 6 5.0 13.0 0.00 0.00 0.00 27 1012.5
20260503053027 80 6 6.0 14.0 0.00 0.00 0.00 27 1012.6
20260503052509 80 6 6.0 14.0 0.00 0.00 0.00 27 1012.6
20260503052004 80 6 7.0 14.0 0.00 0.00 0.00 27 1012.7
20260503051525 80 6 7.0 17.0 0.00 0.00 0.00 27 1012.7